QPF
0.00 0.00 0.00 0.00 0.00 0.00 0.00 0.00 0.00 0.00 0.00 0.01 0.01 0.01 0.01 0.01 0.00 0.00 0.00 0.00 0.00 0.00 0.00 0.00 0.01 0.03 0.04 0.04 0.02 0.00 0.00 0.00 0.00 0.00 0.00 0.00 0.00 0.00 0.00 0.00 0.00 0.01 0.00
0.00 0.00 0.00 0.00 0.00 0.00 0.00 0.00 0.00 0.00 0.00 0.01 0.01 0.02 0.02 0.01 0.00 0.00 0.00 0.00 0.00 0.00 0.00 0.00 0.00 0.00 0.00 0.00 0.00 0.00 0.00 0.00 0.00 0.00 0.00 0.00 0.00 0.00 0.00 0.00 0.00 0.00 0.00
0.00 0.00 0.00 0.00 0.00 0.00 0.00 0.00 0.00 0.00 0.00 0.01 0.01 0.02 0.01 0.01 0.00 0.00 0.00 0.00 0.00 0.00 0.00 0.00 0.00 0.00 0.00 0.00 0.00 0.00 0.00 0.00 0.00 0.00 0.00 0.00 0.00 0.00 0.00 0.00 0.00 0.00 0.00
0.00 0.00 0.00 0.00 0.00 0.00 0.00 0.00 0.00 0.00 0.00 0.00 0.00 0.00 0.00 0.00 0.00 0.00 0.00 0.00 0.00 0.00 0.00 0.00 0.00 0.00 0.00 0.00 0.00 0.00 0.00 0.00 0.00 0.00 0.00 0.00 0.00 0.00 0.00 0.00 0.00 0.00 0.00
0.00 0.00 0.00 0.00 0.00 0.00 0.00 0.00 0.00 0.00 0.00 0.00 0.00 0.00 0.00 0.00 0.00 0.00 0.00 0.00 0.00 0.00 0.00 0.00 0.00 0.00 0.00 0.00 0.00 0.00 0.00 0.00 0.00 0.00 0.00 0.00 0.00 0.00 0.00 0.00 0.00 0.00 0.00
0.00 0.00 0.00 0.00 0.00 0.00 0.00 0.00 0.00 0.00 0.00 0.00 0.00 0.00 0.00 0.00 0.00 0.00 0.00 0.00 0.00 0.00 0.00 0.00 0.00 0.00 0.00 0.00 0.00 0.00 0.00 0.00 0.00 0.00 0.00 0.00 0.00 0.00 0.00 0.00 0.00 0.00 0.00
0.00 0.00 0.00 0.00 0.00 0.00 0.00 0.00 0.00 0.00 0.00 0.00 0.00 0.00 0.00 0.00 0.00 0.00 0.00 0.00 0.00 0.00 0.00 0.00 0.00 0.00 0.00 0.00 0.00 0.00 0.00 0.00 0.00 0.00 0.00 0.00 0.00 0.00 0.00 0.00 0.01 0.01 0.01
0.00 0.02 0.00 0.00 0.00 0.00 0.00 0.00 0.00 0.00 0.00 0.00 0.00 0.00 0.00 0.00 0.00 0.00 0.00 0.00 0.00 0.00 0.00 0.00 0.00 0.00 0.00 0.00 0.00 0.00 0.00 0.00 0.00 0.00 0.00 0.00 0.00 0.00 0.00 0.00 0.00 0.01 0.01
0.01 0.03 0.01 0.00 0.00 0.00 0.00 0.00 0.00 0.00 0.00 0.00 0.00 0.00 0.00 0.00 0.00 0.00 0.00 0.00 0.00 0.00 0.00 0.00 0.00 0.00 0.00 0.00 0.00 0.00 0.00 0.00 0.00 0.00 0.00 0.00 0.00 0.00 0.00 0.00 0.00 0.00 0.00
0.02 0.03 0.01 0.00 0.00 0.00 0.00 0.00 0.00 0.00 0.00 0.00 0.00 0.00 0.00 0.00 0.00 0.00 0.00 0.00 0.00 0.00 0.00 0.00 0.00 0.00 0.00 0.00 0.00 0.00 0.00 0.00 0.00 0.00 0.00 0.00 0.00 0.00 0.00 0.00 0.01 0.01 0.02
0.02 0.03 0.01 0.00 0.00 0.00 0.00 0.00 0.00 0.00 0.00 0.00 0.00 0.00 0.00 0.00 0.00 0.00 0.00 0.00 0.00 0.00 0.00 0.00 0.00 0.00 0.00 0.00 0.00 0.00 0.00 0.00 0.00 0.00 0.00 0.00 0.00 0.01 0.01 0.02 0.02 0.03 0.02
0.01 0.02 0.02 0.01 0.00 0.00 0.00 0.00 0.00 0.00 0.00 0.00 0.00 0.00 0.00 0.00 0.00 0.00 0.00 0.00 0.00 0.00 0.00 0.00 0.00 0.00 0.00 0.00 0.00 0.00 0.00 0.00 0.00 0.00 0.00 0.00 0.01 0.01 0.02 0.01 0.01 0.01 0.01
0.00 0.01 0.02 0.01 0.01 0.00 0.00 0.00 0.00 0.00 0.00 0.00 0.00 0.00 0.00 0.00 0.00 0.00 0.00 0.00 0.00 0.00 0.00 0.00 0.00 0.00 0.00 0.00 0.00 0.00 0.00 0.00 0.00 0.00 0.00 0.00 0.00 0.01 0.01 0.00 0.00 0.00 0.00
0.00 0.01 0.02 0.02 0.01 0.01 0.01 0.00 0.00 0.00 0.00 0.00 0.00 0.00 0.00 0.00 0.00 0.00 0.00 0.00 0.00 0.00 0.00 0.00 0.00 0.00 0.00 0.00 0.00 0.00 0.00 0.00 0.00 0.00 0.00 0.00 0.00 0.00 0.00 0.00 0.00 0.00 0.00
0.01 0.01 0.03 0.03 0.01 0.01 0.01 0.00 0.00 0.00 0.00 0.00 0.00 0.00 0.00 0.00 0.00 0.00 0.00 0.00 0.00 0.00 0.00 0.00 0.00 0.00 0.00 0.00 0.00 0.00 0.00 0.00 0.00 0.00 0.00 0.00 0.00 0.00 0.00 0.00 0.00 0.00 0.00
0.00 0.01 0.02 0.04 0.02 0.01 0.00 0.00 0.00 0.01 0.01 0.00 0.00 0.00 0.00 0.00 0.00 0.00 0.00 0.00 0.00 0.00 0.00 0.00 0.00 0.00 0.00 0.00 0.00 0.00 0.00 0.00 0.00 0.00 0.00 0.00 0.00 0.00 0.00 0.00 0.00 0.00 0.00
0.00 0.00 0.01 0.03 0.03 0.01 0.01 0.01 0.00 0.01 0.01 0.00 0.00 0.00 0.00 0.00 0.00 0.00 0.00 0.00 0.00 0.00 0.00 0.00 0.00 0.00 0.00 0.00 0.00 0.00 0.00 0.00 0.00 0.00 0.00 0.00 0.00 0.00 0.00 0.00 0.00 0.00 0.00
0.00 0.00 0.01 0.03 0.04 0.03 0.02 0.02 0.02 0.01 0.01 0.00 0.00 0.00 0.00 0.00 0.00 0.00 0.00 0.00 0.00 0.00 0.00 0.00 0.00 0.00 0.00 0.00 0.00 0.00 0.00 0.00 0.00 0.00 0.00 0.00 0.00 0.00 0.00 0.00 0.00 0.00 0.00
0.00 0.00 0.00 0.03 0.04 0.05 0.06 0.07 0.06 0.04 0.02 0.01 0.00 0.00 0.00 0.00 0.00 0.00 0.00 0.00 0.00 0.00 0.00 0.00 0.00 0.00 0.00 0.00 0.00 0.00 0.00 0.00 0.00 0.00 0.00 0.00 0.00 0.00 0.00 0.00 0.00 0.00 0.00
0.00 0.00 0.00 0.02 0.05 0.08 0.13 0.13 0.13 0.10 0.05 0.02 0.01 0.01 0.01 0.01 0.00 0.00 0.00 0.00 0.00 0.00 0.00 0.00 0.00 0.00 0.00 0.00 0.00 0.00 0.00 0.00 0.00 0.00 0.00 0.00 0.00 0.00 0.00 0.00 0.00 0.00 0.00
0.00 0.00 0.00 0.01 0.04 0.08 0.09 0.08 0.07 0.06 0.03 0.02 0.02 0.02 0.03 0.02 0.01 0.00 0.00 0.00 0.00 0.00 0.00 0.00 0.00 0.00 0.00 0.00 0.00 0.00 0.00 0.00 0.00 0.00 0.00 0.00 0.00 0.00 0.00 0.00 0.00 0.00 0.00
0.00 0.00 0.00 0.00 0.02 0.04 0.03 0.04 0.07 0.10 0.09 0.07 0.06 0.05 0.06 0.04 0.02 0.01 0.01 0.01 0.00 0.00 0.00 0.00 0.00 0.00 0.00 0.00 0.00 0.00 0.00 0.00 0.00 0.00 0.00 0.00 0.00 0.00 0.00 0.00 0.00 0.00 0.00
0.00 0.00 0.00 0.00 0.01 0.03 0.05 0.09 0.11 0.11 0.10 0.09 0.06 0.05 0.05 0.04 0.03 0.02 0.01 0.01 0.00 0.00 0.00 0.00 0.00 0.00 0.00 0.00 0.00 0.00 0.00 0.00 0.00 0.00 0.00 0.00 0.00 0.00 0.00 0.00 0.00 0.00 0.00
0.00 0.00 0.00 0.00 0.00 0.03 0.06 0.05 0.03 0.02 0.02 0.03 0.04 0.07 0.08 0.06 0.04 0.04 0.03 0.01 0.00 0.00 0.00 0.00 0.00 0.00 0.00 0.00 0.00 0.00 0.00 0.00 0.00 0.00 0.00 0.00 0.00 0.00 0.00 0.00 0.00 0.00 0.00
0.00 0.00 0.00 0.00 0.00 0.01 0.03 0.02 0.01 0.02 0.03 0.04 0.05 0.06 0.07 0.05 0.04 0.04 0.04 0.03 0.01 0.00 0.00 0.00 0.00 0.00 0.00 0.00 0.00 0.00 0.00 0.00 0.00 0.00 0.00 0.00 0.00 0.00 0.00 0.00 0.00 0.00 0.00
0.00 0.00 0.00 0.00 0.00 0.01 0.02 0.02 0.01 0.01 0.01 0.02 0.03 0.04 0.04 0.03 0.03 0.03 0.04 0.03 0.02 0.01 0.00 0.00 0.00 0.00 0.00 0.00 0.00 0.00 0.00 0.00 0.00 0.00 0.00 0.00 0.00 0.00 0.00 0.00 0.00 0.00 0.00
MSLP
1013.38 1013.17 1013.08 1013.11 1013.26 1013.49 1013.75 1014.00 1014.19 1014.33 1014.42 1014.51 1014.63 1014.81 1015.05 1015.35 1015.64 1015.90 1016.07 1016.13 1016.10 1016.00 1015.88 1015.79 1015.75 1015.81 1015.94 1016.11 1016.30 1016.46 1016.58 1016.63 1016.64 1016.62 1016.59 1016.57 1016.57 1016.59 1016.61 1016.62 1016.62 1016.60 1016.57
1013.13 1013.00 1012.97 1013.06 1013.26 1013.53 1013.81 1014.07 1014.26 1014.40 1014.50 1014.61 1014.75 1014.97 1015.25 1015.58 1015.91 1016.19 1016.37 1016.45 1016.42 1016.32 1016.19 1016.08 1016.03 1016.06 1016.15 1016.30 1016.45 1016.59 1016.69 1016.74 1016.75 1016.75 1016.74 1016.74 1016.74 1016.75 1016.76 1016.76 1016.73 1016.69 1016.64
1012.79 1012.74 1012.79 1012.95 1013.20 1013.52 1013.83 1014.12 1014.33 1014.48 1014.60 1014.72 1014.89 1015.13 1015.44 1015.78 1016.13 1016.42 1016.62 1016.70 1016.68 1016.58 1016.46 1016.35 1016.29 1016.30 1016.37 1016.48 1016.60 1016.72 1016.80 1016.85 1016.88 1016.89 1016.90 1016.91 1016.92 1016.93 1016.92 1016.90 1016.85 1016.78 1016.72
1012.44 1012.46 1012.58 1012.81 1013.13 1013.50 1013.86 1014.17 1014.41 1014.58 1014.71 1014.85 1015.03 1015.28 1015.59 1015.94 1016.28 1016.58 1016.78 1016.87 1016.86 1016.78 1016.67 1016.57 1016.52 1016.52 1016.57 1016.66 1016.77 1016.86 1016.94 1016.99 1017.03 1017.06 1017.08 1017.09 1017.11 1017.10 1017.08 1017.02 1016.95 1016.87 1016.79
1012.16 1012.25 1012.44 1012.73 1013.11 1013.52 1013.91 1014.25 1014.50 1014.69 1014.83 1014.97 1015.15 1015.39 1015.70 1016.03 1016.37 1016.65 1016.85 1016.95 1016.96 1016.91 1016.83 1016.76 1016.72 1016.73 1016.78 1016.86 1016.95 1017.04 1017.11 1017.16 1017.20 1017.23 1017.26 1017.27 1017.27 1017.24 1017.19 1017.12 1017.02 1016.93 1016.84
1012.01 1012.16 1012.41 1012.76 1013.17 1013.61 1014.02 1014.37 1014.62 1014.81 1014.95 1015.08 1015.26 1015.49 1015.77 1016.09 1016.40 1016.67 1016.87 1016.98 1017.01 1016.99 1016.95 1016.91 1016.90 1016.93 1016.99 1017.07 1017.16 1017.23 1017.30 1017.34 1017.38 1017.41 1017.42 1017.42 1017.40 1017.35 1017.27 1017.17 1017.05 1016.95 1016.86
1012.02 1012.22 1012.51 1012.89 1013.33 1013.78 1014.18 1014.52 1014.76 1014.93 1015.06 1015.19 1015.35 1015.57 1015.84 1016.13 1016.43 1016.68 1016.87 1016.99 1017.04 1017.05 1017.05 1017.05 1017.08 1017.13 1017.21 1017.29 1017.37 1017.44 1017.50 1017.54 1017.56 1017.57 1017.57 1017.55 1017.50 1017.42 1017.31 1017.19 1017.06 1016.95 1016.87
1012.16 1012.40 1012.72 1013.13 1013.57 1014.00 1014.38 1014.68 1014.90 1015.05 1015.17 1015.29 1015.45 1015.65 1015.91 1016.19 1016.47 1016.71 1016.89 1017.02 1017.09 1017.13 1017.16 1017.20 1017.26 1017.34 1017.43 1017.52 1017.60 1017.66 1017.70 1017.72 1017.73 1017.72 1017.70 1017.65 1017.58 1017.48 1017.35 1017.21 1017.08 1016.98 1016.91
1012.35 1012.63 1012.97 1013.38 1013.82 1014.22 1014.57 1014.84 1015.03 1015.16 1015.26 1015.38 1015.54 1015.75 1016.00 1016.28 1016.54 1016.77 1016.95 1017.08 1017.16 1017.23 1017.29 1017.36 1017.45 1017.55 1017.66 1017.75 1017.82 1017.87 1017.90 1017.90 1017.89 1017.87 1017.82 1017.76 1017.67 1017.56 1017.43 1017.29 1017.17 1017.08 1017.02
1012.51 1012.81 1013.18 1013.59 1014.01 1014.39 1014.70 1014.93 1015.10 1015.21 1015.32 1015.45 1015.63 1015.85 1016.11 1016.39 1016.65 1016.87 1017.04 1017.17 1017.27 1017.35 1017.44 1017.53 1017.65 1017.77 1017.88 1017.98 1018.05 1018.09 1018.10 1018.09 1018.06 1018.02 1017.97 1017.90 1017.81 1017.71 1017.59 1017.46 1017.36 1017.29 1017.25
1012.54 1012.87 1013.25 1013.67 1014.08 1014.43 1014.72 1014.93 1015.08 1015.20 1015.32 1015.48 1015.68 1015.93 1016.21 1016.49 1016.75 1016.97 1017.15 1017.28 1017.38 1017.48 1017.59 1017.71 1017.84 1017.98 1018.11 1018.21 1018.28 1018.31 1018.31 1018.29 1018.25 1018.21 1018.16 1018.10 1018.03 1017.94 1017.85 1017.75 1017.67 1017.62 1017.60
1012.40 1012.75 1013.15 1013.57 1013.97 1014.32 1014.59 1014.80 1014.96 1015.10 1015.25 1015.44 1015.68 1015.96 1016.27 1016.56 1016.83 1017.06 1017.23 1017.37 1017.49 1017.60 1017.73 1017.88 1018.04 1018.20 1018.34 1018.45 1018.52 1018.54 1018.54 1018.51 1018.47 1018.43 1018.40 1018.36 1018.31 1018.27 1018.21 1018.15 1018.10 1018.07 1018.06
1012.10 1012.45 1012.86 1013.28 1013.68 1014.03 1014.31 1014.53 1014.71 1014.89 1015.09 1015.33 1015.61 1015.93 1016.26 1016.57 1016.85 1017.09 1017.27 1017.43 1017.57 1017.71 1017.87 1018.05 1018.23 1018.42 1018.57 1018.69 1018.77 1018.80 1018.79 1018.77 1018.73 1018.70 1018.69 1018.68 1018.67 1018.67 1018.65 1018.64 1018.62 1018.60 1018.58
1011.65 1012.00 1012.40 1012.82 1013.23 1013.58 1013.88 1014.13 1014.36 1014.58 1014.83 1015.12 1015.44 1015.80 1016.15 1016.49 1016.79 1017.05 1017.26 1017.44 1017.62 1017.80 1018.00 1018.21 1018.43 1018.64 1018.82 1018.96 1019.04 1019.07 1019.07 1019.05 1019.02 1019.01 1019.01 1019.03 1019.07 1019.10 1019.13 1019.15 1019.15 1019.14 1019.12
1011.13 1011.45 1011.83 1012.24 1012.64 1013.01 1013.33 1013.63 1013.90 1014.18 1014.49 1014.82 1015.19 1015.57 1015.96 1016.32 1016.65 1016.94 1017.19 1017.42 1017.65 1017.88 1018.13 1018.39 1018.65 1018.89 1019.09 1019.23 1019.32 1019.36 1019.37 1019.35 1019.33 1019.33 1019.35 1019.40 1019.47 1019.54 1019.60 1019.65 1019.66 1019.65 1019.61
1010.59 1010.86 1011.20 1011.58 1011.97 1012.35 1012.71 1013.05 1013.38 1013.71 1014.07 1014.45 1014.85 1015.26 1015.67 1016.06 1016.43 1016.77 1017.08 1017.37 1017.67 1017.97 1018.28 1018.59 1018.88 1019.15 1019.36 1019.52 1019.61 1019.66 1019.66 1019.65 1019.64 1019.65 1019.69 1019.75 1019.84 1019.93 1020.02 1020.08 1020.10 1020.09 1020.03
1010.07 1010.27 1010.56 1010.90 1011.27 1011.66 1012.04 1012.43 1012.81 1013.20 1013.60 1014.02 1014.45 1014.89 1015.32 1015.75 1016.16 1016.56 1016.94 1017.32 1017.69 1018.07 1018.44 1018.80 1019.13 1019.41 1019.63 1019.79 1019.89 1019.94 1019.95 1019.94 1019.94 1019.95 1020.00 1020.07 1020.17 1020.27 1020.36 1020.43 1020.45 1020.43 1020.35
1009.58 1009.70 1009.92 1010.21 1010.56 1010.95 1011.36 1011.79 1012.22 1012.66 1013.11 1013.56 1014.01 1014.47 1014.93 1015.39 1015.86 1016.32 1016.79 1017.25 1017.72 1018.17 1018.61 1019.01 1019.37 1019.66 1019.89 1020.05 1020.14 1020.19 1020.20 1020.20 1020.21 1020.23 1020.28 1020.35 1020.45 1020.55 1020.63 1020.69 1020.71 1020.67 1020.59
1009.11 1009.16 1009.30 1009.54 1009.86 1010.25 1010.69 1011.15 1011.63 1012.12 1012.60 1013.08 1013.55 1014.03 1014.52 1015.02 1015.53 1016.07 1016.62 1017.18 1017.73 1018.26 1018.75 1019.20 1019.57 1019.87 1020.10 1020.25 1020.35 1020.40 1020.42 1020.43 1020.45 1020.48 1020.54 1020.61 1020.69 1020.78 1020.85 1020.89 1020.90 1020.85 1020.75
1008.64 1008.62 1008.70 1008.89 1009.18 1009.57 1010.02 1010.53 1011.05 1011.58 1012.10 1012.60 1013.09 1013.59 1014.09 1014.63 1015.20 1015.80 1016.43 1017.07 1017.71 1018.30 1018.85 1019.32 1019.71 1020.02 1020.24 1020.40 1020.49 1020.56 1020.60 1020.63 1020.67 1020.71 1020.77 1020.84 1020.91 1020.98 1021.03 1021.05 1021.04 1020.98 1020.88
1008.17 1008.09 1008.11 1008.25 1008.52 1008.90 1009.38 1009.91 1010.48 1011.05 1011.60 1012.13 1012.64 1013.15 1013.68 1014.25 1014.86 1015.52 1016.22 1016.93 1017.63 1018.28 1018.87 1019.37 1019.77 1020.08 1020.31 1020.47 1020.58 1020.67 1020.73 1020.80 1020.87 1020.94 1021.01 1021.08 1021.13 1021.18 1021.20 1021.20 1021.17 1021.10 1020.99
1007.72 1007.59 1007.55 1007.65 1007.89 1008.27 1008.76 1009.33 1009.93 1010.54 1011.13 1011.68 1012.22 1012.74 1013.29 1013.88 1014.52 1015.22 1015.97 1016.73 1017.47 1018.17 1018.79 1019.31 1019.73 1020.06 1020.30 1020.48 1020.62 1020.74 1020.85 1020.95 1021.06 1021.16 1021.24 1021.31 1021.36 1021.38 1021.38 1021.35 1021.29 1021.20 1021.09
1007.31 1007.14 1007.06 1007.11 1007.32 1007.68 1008.18 1008.77 1009.41 1010.06 1010.68 1011.27 1011.82 1012.37 1012.93 1013.54 1014.20 1014.93 1015.70 1016.49 1017.26 1017.98 1018.62 1019.17 1019.60 1019.95 1020.22 1020.43 1020.61 1020.78 1020.94 1021.10 1021.24 1021.37 1021.48 1021.55 1021.59 1021.59 1021.56 1021.50 1021.42 1021.31 1021.18
1006.99 1006.78 1006.65 1006.65 1006.82 1007.15 1007.64 1008.25 1008.91 1009.59 1010.25 1010.87 1011.46 1012.03 1012.61 1013.23 1013.91 1014.64 1015.42 1016.22 1017.00 1017.73 1018.39 1018.95 1019.42 1019.79 1020.10 1020.36 1020.59 1020.81 1021.03 1021.24 1021.43 1021.59 1021.72 1021.80 1021.83 1021.81 1021.76 1021.67 1021.56 1021.43 1021.28
1006.78 1006.53 1006.34 1006.28 1006.40 1006.69 1007.16 1007.75 1008.43 1009.13 1009.83 1010.49 1011.12 1011.72 1012.33 1012.96 1013.65 1014.38 1015.16 1015.95 1016.73 1017.46 1018.13 1018.71 1019.20 1019.62 1019.97 1020.28 1020.57 1020.85 1021.12 1021.38 1021.61 1021.80 1021.94 1022.02 1022.05 1022.03 1021.96 1021.85 1021.72 1021.56 1021.38
1006.68 1006.38 1006.13 1006.00 1006.05 1006.28 1006.70 1007.27 1007.94 1008.66 1009.39 1010.10 1010.77 1011.42 1012.06 1012.73 1013.42 1014.16 1014.93 1015.71 1016.48 1017.21 1017.88 1018.47 1019.00 1019.45 1019.86 1020.22 1020.57 1020.90 1021.22 1021.51 1021.77 1021.98 1022.13 1022.22 1022.25 1022.22 1022.14 1022.02 1021.87 1021.69 1021.49
Thickness
5754 5755 5754 5753 5752 5750 5749 5748 5747 5746 5745 5744 5743 5742 5740 5738 5736 5735 5735 5734 5733 5734 5734 5734 5733 5732 5731 5730 5730 5728 5727 5726 5724 5723 5722 5723 5724 5724 5723 5723 5722 5721 5719
5757 5755 5752 5751 5750 5748 5745 5744 5743 5742 5741 5740 5739 5738 5736 5734 5732 5731 5731 5730 5730 5729 5730 5730 5729 5728 5727 5726 5726 5724 5723 5721 5720 5718 5718 5719 5719 5719 5719 5718 5717 5717 5716
5755 5753 5750 5749 5748 5745 5742 5741 5740 5739 5737 5736 5734 5733 5731 5729 5728 5727 5726 5726 5725 5725 5725 5725 5724 5723 5722 5722 5721 5720 5719 5717 5716 5715 5715 5715 5714 5714 5714 5713 5713 5712 5711
5754 5750 5748 5746 5744 5742 5739 5738 5737 5735 5734 5732 5730 5728 5726 5724 5723 5722 5721 5720 5720 5719 5719 5719 5718 5718 5717 5717 5716 5715 5714 5713 5712 5711 5711 5711 5710 5710 5709 5708 5708 5707 5707
5750 5747 5744 5742 5740 5738 5736 5735 5733 5732 5730 5728 5727 5724 5722 5720 5718 5717 5716 5715 5714 5713 5713 5713 5713 5713 5713 5713 5712 5711 5710 5709 5708 5708 5707 5706 5705 5705 5704 5704 5703 5702 5702
5746 5743 5740 5738 5736 5734 5732 5731 5730 5728 5726 5725 5723 5720 5718 5716 5714 5712 5710 5709 5708 5708 5708 5708 5708 5708 5708 5708 5708 5707 5706 5705 5704 5704 5703 5700 5700 5700 5700 5699 5698 5698 5698
5741 5738 5735 5733 5732 5730 5728 5727 5726 5725 5723 5720 5718 5716 5714 5712 5709 5707 5706 5704 5703 5703 5703 5703 5703 5703 5702 5702 5702 5701 5701 5701 5700 5699 5696 5694 5694 5694 5694 5693 5693 5693 5693
5738 5734 5731 5729 5728 5726 5724 5722 5721 5720 5718 5716 5714 5712 5710 5707 5705 5703 5701 5700 5699 5698 5698 5698 5698 5698 5698 5697 5697 5696 5696 5696 5694 5692 5689 5689 5689 5688 5688 5686 5686 5686 5687
5733 5730 5727 5725 5724 5722 5720 5718 5717 5715 5714 5712 5710 5707 5705 5703 5701 5699 5697 5695 5695 5694 5694 5694 5694 5694 5693 5693 5692 5691 5691 5691 5689 5686 5684 5684 5684 5684 5682 5681 5680 5680 5680
5727 5726 5724 5721 5720 5718 5716 5713 5711 5711 5709 5707 5705 5703 5701 5700 5698 5696 5693 5692 5691 5690 5690 5689 5689 5688 5688 5688 5687 5687 5686 5685 5683 5680 5679 5679 5680 5679 5678 5675 5674 5673 5673
5719 5719 5719 5718 5716 5714 5712 5709 5707 5705 5705 5703 5701 5699 5698 5697 5695 5693 5691 5689 5688 5686 5685 5684 5683 5682 5682 5682 5682 5681 5680 5678 5677 5675 5674 5675 5675 5673 5671 5668 5667 5666 5664
5714 5714 5715 5714 5712 5710 5707 5705 5703 5701 5700 5699 5698 5696 5694 5693 5692 5690 5688 5687 5685 5683 5681 5679 5678 5676 5676 5675 5674 5674 5673 5670 5669 5668 5667 5668 5667 5665 5662 5660 5658 5657 5655
5715 5713 5712 5711 5709 5707 5704 5701 5699 5697 5696 5695 5694 5693 5690 5689 5688 5687 5685 5683 5681 5679 5676 5674 5672 5671 5669 5668 5667 5666 5664 5662 5659 5658 5658 5658 5657 5655 5653 5650 5649 5647 5646
5713 5712 5711 5709 5707 5704 5702 5699 5696 5694 5692 5691 5690 5689 5687 5685 5683 5682 5681 5679 5676 5674 5671 5669 5666 5664 5663 5661 5660 5658 5656 5653 5650 5649 5647 5647 5646 5644 5642 5640 5639 5637 5636
5710 5710 5710 5708 5705 5702 5699 5696 5694 5691 5689 5687 5686 5685 5684 5682 5680 5677 5675 5673 5671 5668 5666 5663 5660 5657 5656 5655 5653 5651 5648 5645 5642 5640 5638 5636 5634 5633 5631 5629 5628 5628 5627
5705 5706 5707 5706 5705 5701 5698 5695 5693 5689 5687 5684 5683 5682 5681 5679 5676 5673 5670 5668 5665 5662 5659 5657 5654 5651 5649 5647 5645 5643 5639 5636 5633 5631 5629 5626 5624 5622 5621 5619 5619 5618 5618
5704 5705 5704 5705 5703 5701 5699 5695 5692 5689 5685 5683 5681 5680 5678 5676 5673 5669 5666 5663 5659 5656 5653 5650 5646 5644 5641 5639 5636 5634 5631 5627 5624 5621 5620 5618 5615 5613 5611 5610 5609 5608 5608
5704 5704 5703 5702 5700 5699 5697 5693 5691 5688 5684 5681 5679 5677 5676 5673 5669 5665 5661 5657 5653 5650 5646 5642 5639 5635 5632 5630 5627 5625 5622 5619 5615 5612 5611 5609 5607 5604 5602 5601 5599 5598 5597
5702 5702 5702 5700 5698 5696 5694 5691 5689 5687 5684 5681 5677 5675 5672 5668 5664 5660 5655 5650 5647 5643 5639 5635 5630 5627 5623 5621 5619 5616 5613 5610 5607 5604 5601 5600 5598 5595 5593 5591 5589 5588 5587
5700 5700 5700 5699 5697 5694 5689 5685 5683 5683 5682 5679 5676 5672 5668 5663 5658 5654 5648 5644 5640 5635 5630 5626 5622 5618 5615 5612 5610 5606 5602 5600 5598 5595 5593 5591 5589 5586 5583 5581 5578 5576 5575
5693 5694 5695 5695 5695 5691 5685 5681 5678 5676 5676 5675 5673 5669 5664 5658 5653 5649 5642 5637 5633 5628 5623 5618 5614 5609 5605 5603 5599 5595 5592 5590 5589 5586 5584 5582 5579 5575 5572 5569 5566 5565 5563
5685 5687 5688 5689 5691 5690 5688 5685 5680 5676 5672 5671 5668 5664 5660 5654 5649 5644 5638 5632 5627 5621 5615 5611 5607 5602 5597 5594 5591 5586 5582 5580 5578 5577 5574 5570 5567 5563 5560 5557 5555 5553 5552
5676 5679 5682 5682 5684 5685 5685 5680 5671 5662 5659 5658 5658 5658 5654 5649 5644 5640 5634 5628 5622 5616 5610 5605 5601 5597 5590 5585 5583 5580 5574 5572 5567 5565 5561 5558 5555 5551 5548 5546 5544 5542 5540
5669 5671 5673 5675 5677 5679 5678 5674 5670 5665 5659 5659 5658 5652 5647 5642 5638 5635 5629 5623 5617 5611 5605 5600 5595 5591 5585 5579 5574 5571 5567 5564 5559 5555 5550 5547 5544 5541 5538 5535 5532 5530 5529
5659 5660 5663 5665 5668 5670 5670 5670 5667 5664 5659 5652 5648 5643 5639 5634 5631 5627 5622 5617 5611 5605 5600 5594 5589 5584 5579 5573 5567 5562 5557 5552 5548 5544 5539 5535 5532 5530 5527 5523 5520 5517 5515
5645 5647 5649 5651 5655 5658 5659 5660 5661 5658 5649 5641 5637 5633 5630 5625 5621 5618 5615 5610 5604 5598 5594 5588 5582 5577 5571 5566 5560 5555 5550 5544 5538 5533 5527 5521 5518 5517 5514 5510 5506 5503 5500